This is the latest recevied weather packets stored in our database for station/object KM4CNW. If no packets are shown the sender has not sent any weather packets the latest 10 day(s).
| Time | Temp. | Humidity | Pressure | Rain* | Wind** | Luminosity | Snow |
|---|---|---|---|---|---|---|---|
| 1777830953 | 18.33° C | 28% | 1012.9 hPa | 0 mm | - | 922 W/m² | - |
| 1777830650 | 17.78° C | 32% | 1012.9 hPa | 0 mm | - | 925 W/m² | - |
| 1777830347 | 18.33° C | 29% | 1012.9 hPa | 0 mm | - | 925 W/m² | - |
| 1777830044 | 18.33° C | 27% | 1013.1 hPa | 0 mm | - | 926 W/m² | - |
| 1777829739 | 17.78° C | 29% | 1013.2 hPa | 0 mm | - | 927 W/m² | - |
| 1777829435 | 17.78° C | 29% | 1013.3 hPa | 0 mm | - | 928 W/m² | - |
| 1777829133 | 17.78° C | 30% | 1013.3 hPa | 0 mm | - | 927 W/m² | - |
| 1777828830 | 17.78° C | 30% | 1013.5 hPa | 0 mm | - | 928 W/m² | - |
| 1777828526 | 17.22° C | 31% | 1013.5 hPa | 0 mm | - | 926 W/m² | - |
| 1777828224 | 17.22° C | 27% | 1013.6 hPa | 0 mm | - | 925 W/m² | - |
| 1777827920 | 17.78° C | 31% | 1013.9 hPa | 0 mm | - | 921 W/m² | - |
| 1777827618 | 17.78° C | 28% | 1013.7 hPa | 0 mm | - | 919 W/m² | - |
| 1777827315 | 17.22° C | 31% | 1013.7 hPa | 0 mm | - | 915 W/m² | - |
| 1777827011 | 17.78° C | 27% | 1014 hPa | 0 mm | - | 913 W/m² | - |
| 1777826708 | 17.22° C | 27% | 1014 hPa | 0 mm | - | 909 W/m² | - |
| 1777826404 | 17.22° C | 28% | 1014 hPa | 0 mm | - | 906 W/m² | - |
| 1777826102 | 17.22° C | 29% | 1014 hPa | 0 mm | - | 902 W/m² | - |
| 1777825799 | 16.67° C | 28% | 1014 hPa | 0 mm | - | 897 W/m² | - |
| 1777825496 | 16.67° C | 28% | 1014 hPa | 0 mm | - | 890 W/m² | - |
| 1777825194 | 16.67° C | 28% | 1014.1 hPa | 0 mm | - | 885 W/m² | - |
| 1777824890 | 16.67° C | 30% | 1014.1 hPa | 0 mm | - | 879 W/m² | - |
| 1777824586 | 16.67° C | 28% | 1014 hPa | 0 mm | - | 872 W/m² | - |
| 1777824284 | 16.11° C | 33% | 1014.2 hPa | 0 mm | - | 862 W/m² | - |
| 1777823978 | 16.67° C | 32% | 1014.3 hPa | 0 mm | - | 860 W/m² | - |
| 1777823676 | 16.11° C | 33% | 1014.5 hPa | 0 mm | - | 851 W/m² | - |
* Rain latest hour (hover to see other rain measurements)
** Current wind speed in m/s (hover to see current wind gust speed)